Location: Cherryland
(37.6794°N, 122.1033°W)
Time: 22:43:09
(UTC+00:00)

SL-16 R/B - Pass Details

Date: 14 December 2025
Orbit: 841 x 845 km, 71.0° (Epoch: 14 January)

Event Time Altitude Azimuth Distance (km) Brightness Sun altitude
Exits shadow 14:18:26 14° 285° (WNW) 2,173 3.7 -11.1°
Maximum altitude 14:20:22 17° 261° (W) 2,022 3.7 -10.8°
Drops below altitude 10° 14:23:50 10° 223° (SW) 2,457 4.4 -10.1°
Sets 14:27:08 0° 203° (SSW) 3,386 5.3 -9.5°
